GSAT0206 (GALILEO 10) (40890 NORAD) Tracking and Keplerian Element Data

This shows tracking and keplerian element data for the satellite.

Feedback or suggestion? Click here.




ElementValue
Catalog40890
NameGSAT0206 (GALILEO 10)
Epoch Orbit5440
Epoch Day158.01390575
Epoch Year2024
RAAN242.0747
Inclination55.221
Eccentricity0.0001124
Argument of Perigee354.707
Mean Anonmoly5.354
Mean Motion1.70473725
Decay Rate4E-08
L11 40890U 15045B 24158.01390575 .00000004 00000+0 00000+0 0 9998
L22 40890 55.2210 242.0747 0001124 354.7070 5.3540 1.70473725 54404



Live tracking and technical data element details for GSAT0206 (GALILEO 10) (NORAD 40890). GSAT0206 (GALILEO 10) can be tracked NOW for your location showing map with azimuth and elevation plus other details from your city location.







IsCatalogInMostPopularTable: catalog: 40890, numindb: 630
Update: records affected: 1



GetName: 40890 GSAT0206 (GALILEO 10)

Hit Count: updated at: Fri, 14 Jun 2024 18:42:55 GMT